Satellite-Ground Cal/Val Region Overpasses Predictions

Prediction of Satellite NPP Overpassing Cal/Val Region: PacNW

Region Location: (Latitude: 10.00, Longitude: 139.50) to (Latitude: 22.70, Longitude: 165.60).

Table of predicted overpasses for the next 14.0 days since TLE Epoch: 2/27/2021
Interval Starting Time Starting Location Ending Time Ending Location
1 02/27/2021 02:58:00 ( 10.32, 155.06) 02/27/2021 03:01:30 ( 22.65, 152.12)
2 02/27/2021 15:29:47 ( 22.70, 152.36) 02/27/2021 15:33:23 ( 10.02, 149.35)
3 02/28/2021 02:38:53 ( 10.06, 159.88) 02/28/2021 02:42:28 ( 22.68, 156.87)
4 02/28/2021 15:10:46 ( 22.67, 157.11) 02/28/2021 15:14:21 ( 10.05, 154.11)
5 03/01/2021 02:19:51 ( 10.03, 164.64) 03/01/2021 02:23:26 ( 22.65, 161.64)
6 03/01/2021 14:51:44 ( 22.69, 161.88) 03/01/2021 14:55:20 ( 10.01, 158.86)
7 03/02/2021 03:42:18 ( 10.01, 144.03) 03/02/2021 03:45:54 ( 22.69, 141.01)
8 03/02/2021 14:33:54 ( 18.44, 165.59) 03/02/2021 14:36:17 ( 10.04, 163.63)
9 03/02/2021 16:14:12 ( 22.65, 141.25) 03/02/2021 16:16:15 ( 15.44, 139.50)
10 03/03/2021 03:23:17 ( 10.04, 148.78) 03/03/2021 03:26:52 ( 22.66, 145.78)
11 03/03/2021 15:55:10 ( 22.68, 146.02) 03/03/2021 15:58:45 ( 10.06, 143.02)
12 03/04/2021 03:04:14 ( 10.02, 153.54) 03/04/2021 03:07:50 ( 22.70, 150.53)
13 03/04/2021 15:36:08 ( 22.65, 150.77) 03/04/2021 15:39:43 ( 10.03, 147.77)
14 03/05/2021 02:45:13 ( 10.05, 158.29) 03/05/2021 02:48:48 ( 22.67, 155.29)
15 03/05/2021 15:17:06 ( 22.67, 155.53) 03/05/2021 15:20:41 ( 10.05, 152.53)
16 03/06/2021 02:26:10 ( 10.03, 163.06) 03/06/2021 02:29:45 ( 22.65, 160.06)
17 03/06/2021 14:58:03 ( 22.70, 160.30) 03/06/2021 15:01:39 ( 10.02, 157.28)
18 03/07/2021 02:09:50 ( 19.52, 165.59) 03/07/2021 02:10:44 ( 22.68, 164.81)
19 03/07/2021 03:48:38 ( 10.01, 142.45) 03/07/2021 03:52:09 ( 22.40, 139.50)
20 03/07/2021 14:39:02 ( 22.66, 165.05) 03/07/2021 14:42:37 ( 10.04, 162.04)
21 03/07/2021 16:20:32 ( 22.65, 139.67) 03/07/2021 16:20:43 ( 22.01, 139.51)
22 03/08/2021 03:29:37 ( 10.04, 147.20) 03/08/2021 03:33:12 ( 22.67, 144.19)
23 03/08/2021 16:01:29 ( 22.68, 144.44) 03/08/2021 16:05:04 ( 10.06, 141.43)
24 03/09/2021 03:10:34 ( 10.02, 151.96) 03/09/2021 03:14:09 ( 22.64, 148.96)
25 03/09/2021 15:42:28 ( 22.64, 149.18) 03/09/2021 15:46:03 ( 10.02, 146.18)
26 03/10/2021 02:51:33 ( 10.06, 156.71) 03/10/2021 02:55:08 ( 22.68, 153.71)
27 03/10/2021 15:23:25 ( 22.67, 153.95) 03/10/2021 15:27:00 ( 10.05, 150.95)
28 03/11/2021 02:32:30 ( 10.03, 161.47) 03/11/2021 02:36:05 ( 22.65, 158.47)
29 03/11/2021 15:04:23 ( 22.69, 158.71) 03/11/2021 15:07:59 ( 10.01, 155.70)
30 03/12/2021 02:14:16 ( 12.83, 165.59) 03/12/2021 02:17:04 ( 22.69, 163.22)
31 03/12/2021 03:54:58 ( 10.02, 140.86) 03/12/2021 03:56:37 ( 15.83, 139.51)
